KASHIWA

Last updated on Mon Aug 12 2024 00:02:06 GMT+0000 (Coordinated Universal Time)

1 59508U 98067WH 24223.81692925 .05053463 11994-4 16783-2 0 9993 2 59508 51.6110 27.2781 0013984 288.0051 71.9445 16.24772712 19143

Satellite not in orbit